This demonstration page uses our WeatherBlox Daily Observations layout. Learn more.

Left ArrowRight Arrow

34.02893, -84.19858

Hourly Observations for July 24, 2021

Temp ( °F °C ) Dew Point ( °F °C ) Humidity (%) Winds ( mph kmh ) Pressure ( in mb ) Visibility ( mi km ) Precip ( " mm )
12:53 am 00:53 Clear with Mist and Fog 73 22.8 72 22.2 96 96 Calm 30.04 1017 4 6 0.00 0.00
1:53 am 01:53 Clear with Mist and Fog 72 22.2 72 22.2 100 100 Calm 30.04 1017 3 5 0.00 0.00
2:05 am 02:05 Clear with Mist and Fog 72 22.2 72 22.2 100 100 Calm 30.07 1018 2 3 0.00 0.00
2:11 am 02:11 Clear with Mist and Fog 73 22.8 72 22.2 96 96 Calm 30.05 1018 3 5 0.00 0.00
2:53 am 02:53 Clear with Mist and Fog 72 22.2 71 21.7 97 97 Calm 30.03 1017 3 4 0.00 0.00
3:12 am 03:12 Clear with Mist and Fog 72 22.2 71 21.7 97 97 Calm 30.05 1017 4 6 0.00 0.00
3:53 am 03:53 Clear with Mist and Fog 71 21.7 71 21.7 100 100 Calm 30.03 1017 5 8 0.00 0.00
4:10 am 04:10 Clear with Mist and Fog 71 21.7 71 21.7 100 100 Calm 30.05 1018 2 3 0.00 0.00
4:19 am 04:19 Partly Cloudy with Mist and Fog 71 21.7 71 21.7 100 100 Calm 30.05 1018 3 5 0.00 0.00
4:53 am 04:53 Partly Cloudy with Mist and Fog 72 22.2 71 21.7 97 97 Calm 30.03 1017 6 10 0.00 0.00
5:53 am 05:53 Mostly Clear with Mist and Fog 71 21.7 71 21.7 100 100 Calm 30.05 1018 3 5 0.00 0.00
6:03 am 06:03 Clear with Mist and Fog 71 21.7 71 21.7 100 100 Calm 30.06 1018 2 3 0.00 0.00
6:44 am 06:44 Sunny with Mist and Fog 71 21.7 71 21.7 100 100 Calm 30.07 1018 3 5 0.00 0.00
6:53 am 06:53 Sunny with Mist and Fog 70 21.1 70 21.1 100 100 Calm 30.06 1018 4 6 0.00 0.00
7:17 am 07:17 Sunny with Mist and Fog 71 21.7 71 21.7 100 100 Calm 30.08 1019 2 3 0.00 0.00
7:39 am 07:39 Sunny with Mist and Fog 72 22.2 72 22.2 100 100 Calm 30.08 1018 3 5 0.00 0.00
7:53 am 07:53 Sunny with Mist and Fog 73 22.8 73 22.8 100 100 Calm 30.07 1018 3 5 0.00 0.00
8:53 am 08:53 Sunny with Mist and Fog 76 24.4 74 23.3 94 94 SSE 3 6 30.08 1019 4 6 0.00 0.00
9:10 am 09:10 Partly Cloudy with Mist and Fog 76 24.4 74 23.3 94 94 Calm 30.09 1019 5 8 0.00 0.00
9:53 am 09:53 Sunny with Mist and Fog 79 26.1 75 23.9 88 88 S 6 9 30.08 1019 6 10 0.00 0.00
10:53 am 10:53 Hazy 81 27.2 73 22.8 77 77 SSW 8 13 30.08 1019 6 10 0.00 0.00
12:53 pm 12:53 Mostly Sunny 84 28.9 72 22.2 67 67 SSW 5 7 30.07 1018 7 11 0.00 0.00
1:53 pm 13:53 Partly Cloudy 85 29.4 71 21.7 63 63 SSW 5 7 30.05 1018 7 11 0.00 0.00
2:53 pm 14:53 Mostly Sunny 88 31.1 71 21.7 57 57 Calm 30.02 1017 7 11 0.00 0.00
3:53 pm 15:53 Mostly Cloudy 89 31.7 71 21.7 55 55 VRB 5 7 30.01 1016 7 11 0.00 0.00
4:53 pm 16:53 Mostly Cloudy 88 31.1 71 21.7 57 57 SSE 6 9 29.99 1016 7 11 0.00 0.00
5:53 pm 17:53 Sunny 88 31.1 70 21.1 55 55 SSE 6 9 29.98 1015 8 13 0.00 0.00
6:53 pm 18:53 Sunny 85 29.4 72 22.2 65 65 S 5 7 29.98 1015 7 11 0.00 0.00
7:53 pm 19:53 Mostly Cloudy 84 28.9 73 22.8 70 70 SSW 7 11 29.98 1015 7 11 0.00 0.00
8:53 pm 20:53 Mostly Cloudy 81 27.2 70 21.1 69 69 S 3 6 29.99 1016 8 13 0.00 0.00
9:53 pm 21:53 Partly Cloudy 80 26.7 73 22.8 79 79 S 5 7 29.99 1016 7 11 0.00 0.00
10:53 pm 22:53 Clear 80 26.7 74 23.3 82 82 Calm 30.00 1016 7 11 0.00 0.00
11:53 pm 23:53 Clear 78 25.6 74 23.3 87 87 S 5 7 30.00 1016 7 11 0.00 0.00

Powered by AerisWeather